Terminal Aerodrome Forecast
Issued by NWS La Crosse, WI

Home | Current Version | Previous Version | Text Only | Print | Product List | Glossary On
Versions: 1 2 3 4 5 6 7 8 9 10 11 12 13 14 15 16 17 18 19 20 21 22 23 24 25 26 27 28 29 30
000
FTUS43 KARX 281731
TAFLSE
TAF
KLSE 281731Z 2818/2918 15009KT P6SM SKC
     FM290500 18013KT P6SM BKN080 WS015/19045KT
     FM291200 20015KT 4SM RA BKN025
     FM291600 24014KT P6SM BKN020=

USA.gov is the U.S. government's official web portal to all federal, state and local government web resources and services.